Clearfield, PA

6:49 AM EDT on May 28, 2017 (GMT -0400)
Clearfield-Lawrence

Weather History for KFIG - July, 2013

Change the Weather History Date:

Friday, July 5, 2013

  Actual Average (KDUJ) Record (KDUJ)
Temperature  
Mean Temperature 74 °F -  
Max Temperature 84 °F 76 °F 89 °F (1988)
Min Temperature 64 °F 58 °F 46 °F (1968)
Cooling Degree Days 9    
Growing Degree Days 24 (Base 50)    
Moisture  
Dew Point 65 °F    
Average Humidity 85    
Maximum Humidity 100    
Minimum Humidity 51    
Precipitation  
Precipitation 0.01 in - - ()
Sea Level Pressure  
Sea Level Pressure 30.19 in    
Wind  
Wind Speed 3 mph (West)    
Max Wind Speed 14 mph    
Max Gust Speed 18 mph    
Visibility 6 miles    
Events Fog , Thunderstorm    
Averages and records for this station are not official NWS values.
T = Trace of Precipitation, MM = Missing Value Source: NWS Daily Summary

Daily Weather History Graph

Daily Weather History Graph

Search for Another Location

Airport or City:

Trip Planner

Search our weather history database for the weather conditions in past years. The results will help you decide how hot, cold, wet, or windy it might be!

Date:

Astronomy

Jul. 05, 2013 Rise Set
Actual Time 5:47 AM EDT 8:48 PM EDT
Civil Twilight 5:14 AM EDT 9:22 PM EDT
Nautical Twilight 4:31 AM EDT 10:04 PM EDT
Astronomical Twilight 3:42 AM EDT 10:53 PM EDT
Moon 3:45 AM EDT (7/5) 6:41 PM EDT (7/5)
Length of Visible Light 16h 08m
Length of Day
15h 01m
Waning Crescent, 6% of the Moon is Illuminated
Jul 5
Waning Crescent
Jul 8
New
Jul 15
First Quarter
Jul 22
Full
Jul 29
Last Quarter

Hourly Weather History & Observations

Time (EDT) Temp. Heat Index Dew Point Humidity Pressure Visibility Wind Dir Wind Speed Gust Speed Precip Events Conditions
12:19 AM 68.0 °F - 66.2 °F 94% 30.21 in 1.8 mi NNW 4.6 mph - N/A   Clear
12:30 AM 68.0 °F - 66.2 °F 94% 30.21 in 3.0 mi Calm Calm - N/A   Clear
12:54 AM 68.0 °F - 66.0 °F 93% 30.18 in 7.0 mi North 3.5 mph - N/A   Clear
1:54 AM 68.0 °F - 66.0 °F 93% 30.19 in 10.0 mi Calm Calm - 0.01 in   Clear
2:33 AM 66.2 °F - 66.2 °F 100% 30.21 in 1.5 mi North 3.5 mph - N/A   Clear
2:36 AM 66.2 °F - 66.2 °F 100% 30.21 in 0.8 mi Calm Calm - N/A   Mist
2:45 AM 66.2 °F - 64.4 °F 94% 30.21 in 1.5 mi NNW 3.5 mph - N/A   Partly Cloudy
2:47 AM 66.2 °F - 64.4 °F 94% 30.21 in 3.0 mi NNW 3.5 mph - N/A   Partly Cloudy
2:54 AM 66.0 °F - 64.9 °F 96% 30.18 in 1.8 mi North 3.5 mph - N/A   Partly Cloudy
3:06 AM 66.2 °F - 64.4 °F 94% 30.21 in 3.0 mi Calm Calm - N/A   Clear
3:14 AM 66.2 °F - 64.4 °F 94% 30.21 in 6.0 mi Calm Calm - N/A   Scattered Clouds
3:23 AM 66.2 °F - 64.4 °F 94% 30.21 in 4.0 mi Calm Calm - N/A   Mostly Cloudy
3:27 AM 66.2 °F - 64.4 °F 94% 30.21 in 1.8 mi Calm Calm - N/A   Mostly Cloudy
3:39 AM 66.2 °F - 64.4 °F 94% 30.21 in 2.0 mi Calm Calm - N/A   Scattered Clouds
3:54 AM 66.0 °F - 64.9 °F 96% 30.18 in 1.8 mi Calm Calm - N/A   Partly Cloudy
4:04 AM 66.2 °F - 64.4 °F 94% 30.21 in 3.0 mi Calm Calm - N/A   Partly Cloudy
4:07 AM 66.2 °F - 64.4 °F 94% 30.21 in 1.5 mi Calm Calm - N/A   Scattered Clouds
4:10 AM 64.4 °F - 64.4 °F 100% 30.21 in 0.8 mi Calm Calm - N/A   Mist
4:34 AM 64.4 °F - 64.4 °F 100% 30.20 in 0.2 mi North 4.6 mph - N/A Fog Fog
4:44 AM 64.4 °F - 64.4 °F 100% 30.20 in 0.5 mi Calm Calm - N/A Fog Fog
4:54 AM 64.9 °F - 64.0 °F 97% 30.18 in 0.2 mi Calm Calm - N/A Fog Fog
5:26 AM 64.4 °F - 64.4 °F 100% 30.21 in 0.5 mi Calm Calm - N/A Fog Fog
5:37 AM 64.4 °F - 64.4 °F 100% 30.21 in 0.2 mi Calm Calm - N/A Fog Fog
5:54 AM 64.0 °F - 64.0 °F 100% 30.19 in 0.2 mi NE 3.5 mph - N/A Fog Fog
6:54 AM 64.9 °F - 64.0 °F 97% 30.19 in 0.2 mi Calm Calm - N/A Fog Fog
7:41 AM 66.2 °F - 66.2 °F 100% 30.22 in 0.5 mi Calm Calm - N/A Fog Fog
7:49 AM 68.0 °F - 66.2 °F 94% 30.22 in 2.0 mi Calm Calm - N/A   Mostly Cloudy
7:54 AM 68.0 °F - 66.9 °F 96% 30.19 in 9.0 mi Calm Calm - N/A   Mostly Cloudy
8:01 AM 69.8 °F - 66.2 °F 88% 30.22 in 10.0 mi Calm Calm - N/A   Scattered Clouds
8:54 AM 72.0 °F - 68.0 °F 87% 30.20 in 10.0 mi Calm Calm - N/A   Clear
9:54 AM 77.0 °F - 68.0 °F 74% 30.19 in 10.0 mi SSW 5.8 mph - N/A   Clear
10:54 AM 79.0 °F - 66.0 °F 64% 30.19 in 10.0 mi WSW 10.4 mph - N/A   Partly Cloudy
11:54 AM 80.1 °F 81.9 °F 64.9 °F 60% 30.19 in 10.0 mi SSW 12.7 mph 17.3 mph N/A   Scattered Clouds
12:54 PM 80.1 °F 81.9 °F 64.9 °F 60% 30.19 in 10.0 mi SW 13.8 mph - N/A   Mostly Cloudy
1:54 PM 82.9 °F 85.4 °F 66.9 °F 58% 30.17 in 10.0 mi SW 9.2 mph 16.1 mph N/A   Partly Cloudy
2:54 PM 84.0 °F 86.3 °F 66.0 °F 55% 30.16 in 10.0 mi SW 9.2 mph - N/A   Partly Cloudy
3:54 PM 84.0 °F 86.3 °F 66.0 °F 55% 30.14 in 10.0 mi SSW 9.2 mph 17.3 mph N/A   Scattered Clouds
4:54 PM 84.9 °F 87.1 °F 66.0 °F 53% 30.12 in 10.0 mi Variable 6.9 mph - N/A Thunderstorm Partly Cloudy
5:13 PM 84.2 °F 85.6 °F 64.4 °F 51% 30.15 in 10.0 mi SW 8.1 mph 16.1 mph N/A   Partly Cloudy
5:54 PM 84.0 °F 85.4 °F 64.0 °F 51% 30.12 in 10.0 mi SW 12.7 mph 18.4 mph N/A   Scattered Clouds
6:54 PM 79.0 °F - 68.0 °F 69% 30.12 in 10.0 mi Variable 4.6 mph - N/A   Overcast
7:39 PM 80.6 °F 83.9 °F 69.8 °F 70% 30.16 in 10.0 mi Variable 6.9 mph - N/A Thunderstorm Mostly Cloudy
7:54 PM 79.0 °F - 69.1 °F 72% 30.13 in 10.0 mi South 5.8 mph - N/A Thunderstorm Mostly Cloudy
8:24 PM 75.2 °F - 64.4 °F 69% 30.17 in 10.0 mi Variable 4.6 mph - N/A   Partly Cloudy
8:54 PM 73.0 °F - 64.0 °F 73% 30.15 in 10.0 mi Variable 3.5 mph - N/A   Clear
9:54 PM 71.1 °F - 64.9 °F 81% 30.16 in 10.0 mi Calm Calm - N/A   Clear
10:54 PM 70.0 °F - 64.9 °F 84% 30.16 in 10.0 mi South 3.5 mph - N/A   Clear
11:54 PM 69.1 °F - 66.0 °F 90% 30.17 in 10.0 mi Calm Calm - N/A   Partly Cloudy